GW5842 Weather Reports


time (UTC)temp
C
wind
direction
speed
KPH
gust
KPH
rain 1hr
cm
rain 24hr
cm
rain mn
cm
humidity
%
barometer
mb
20260505040359 21 148 0.0 0.0 0.00 0.00 0.00 96 1020.4
20260505035855 21 139 0.0 0.0 0.00 0.00 0.00 96 1020.4
20260505035351 21 146 0.0 0.0 0.00 0.00 0.00 96 1020.7
20260505034849 21 144 0.0 0.0 0.00 0.00 0.00 95 1020.5
20260505034345 21 146 0.0 0.0 0.00 0.00 0.00 95 1020.6
20260505033842 21 139 0.0 0.0 0.00 0.00 0.00 95 1020.7
20260505033339 21 143 0.0 0.0 0.00 0.00 0.00 95 1020.7
20260505032838 21 130 0.0 0.0 0.00 0.00 0.00 95 1020.6
20260505032334 21 143 0.0 1.6 0.00 0.00 0.00 95 1020.7
20260505031831 21 143 0.0 0.0 0.00 0.00 0.00 95 1020.8
20260505031327 21 145 0.0 0.0 0.00 0.00 0.00 95 1020.8
20260505030825 21 148 0.0 0.0 0.00 0.00 0.00 95 1020.7
20260505030321 21 146 0.0 0.0 0.00 0.00 0.00 95 1020.6
20260505025816 21 149 0.0 0.0 0.00 0.00 0.00 95 1020.7
20260505025314 21 142 0.0 1.6 0.00 0.00 0.00 95 1020.6
20260505024812 22 145 0.0 0.0 0.00 0.00 0.00 95 1020.7
20260505024309 22 142 0.0 0.0 0.00 0.00 0.00 95 1020.9
20260505023807 22 136 0.0 0.0 0.00 0.00 0.00 95 1020.5
20260505023303 22 149 0.0 0.0 0.00 0.00 0.00 95 1020.5
20260505022800 22 148 0.0 0.0 0.00 0.00 0.00 95 1020.6
20260505022258 22 133 0.0 1.6 0.00 0.00 0.00 95 1020.5
20260505021754 22 139 0.0 0.0 0.00 0.00 0.00 95 1020.5
20260505021251 22 145 0.0 0.0 0.00 0.00 0.00 95 1020.5
20260505020747 22 135 0.0 0.0 0.00 0.00 0.00 94 1020.5
20260505020242 22 150 0.0 0.0 0.00 0.00 0.00 95 1020.3
20260505015740 22 152 0.0 0.0 0.00 0.00 0.00 94 1020.3
20260505015237 22 148 0.0 0.0 0.00 0.00 0.00 94 1020.3
20260505014734 22 140 0.0 1.6 0.00 0.00 0.00 94 1020.5
20260505014231 22 135 0.0 0.0 0.00 0.00 0.00 94 1020.1
20260505013728 22 140 0.0 1.6 0.00 0.00 0.00 94 1020.1
20260505013225 22 139 0.0 0.0 0.00 0.00 0.00 94 1020.3
20260505012723 22 136 0.0 1.6 0.00 0.00 0.00 94 1020.2
20260505012220 23 128 0.0 0.0 0.00 0.00 0.00 94 1020.0
20260505011716 23 135 0.0 0.0 0.00 0.00 0.00 94 1019.9
20260505011213 23 144 0.0 0.0 0.00 0.00 0.00 93 1019.7
20260505010708 23 130 0.0 0.0 0.00 0.00 0.00 93 1019.7
20260505010205 23 150 0.0 0.0 0.00 0.00 0.00 93 1019.7
20260505005701 23 141 0.0 0.0 0.00 0.00 0.00 93 1019.6
20260505005159 23 147 0.0 0.0 0.00 0.00 0.00 93 1019.5
20260505004656 23 146 0.0 0.0 0.00 0.00 0.00 93 1019.7
20260505004152 23 141 0.0 0.0 0.00 0.00 0.00 93 1019.5
20260505003649 23 149 0.0 0.0 0.00 0.00 0.00 92 1019.7
20260505003147 23 142 0.0 0.0 0.00 0.00 0.00 92 1019.5
20260505002643 23 121 0.0 1.6 0.00 0.00 0.00 92 1019.5
20260505002141 24 146 0.0 0.0 0.00 0.00 0.00 91 1019.7
20260505001638 24 159 0.0 0.0 0.00 0.00 0.00 91 1019.4
20260505001135 25 154 0.0 0.0 0.00 0.00 0.00 90 1019.5
20260505000632 25 159 0.0 0.0 0.00 0.00 0.00 90 1019.5
20260505000130 25 149 0.0 0.0 0.00 0.00 0.00 89 1019.7
20260504235626 25 156 0.0 0.0 0.00 0.00 0.00 89 1019.5
20260504235123 25 154 0.0 0.0 0.00 0.00 0.00 88 1019.5
20260504234620 25 157 0.0 0.0 0.00 0.00 0.00 88 1019.5
20260504234117 25 150 0.0 0.0 0.00 0.00 0.00 87 1019.5
20260504233613 25 145 0.0 1.6 0.00 0.00 0.00 87 1019.5
20260504233109 25 151 0.0 0.0 0.00 0.00 0.00 87 1019.5
20260504232607 25 145 0.0 0.0 0.00 0.00 0.00 87 1019.3
20260504232104 25 145 0.0 0.0 0.00 0.00 0.00 87 1019.2
20260504231600 25 132 0.0 0.0 0.00 0.00 0.00 86 1019.2
20260504231056 26 146 0.0 0.0 0.00 0.00 0.00 86 1019.3
20260504230552 26 132 0.0 0.0 0.00 0.00 0.00 86 1019.2
20260504230052 26 135 0.0 0.0 0.00 0.00 0.00 85 1019.1
20260504225549 26 156 0.0 1.6 0.00 0.00 0.00 84 1019.1
20260504225046 26 158 0.0 3.2 0.00 0.00 0.00 84 1019.0
20260504224542 26 157 0.0 1.6 0.00 0.00 0.00 83 1019.1
20260504224040 26 174 1.6 3.2 0.00 0.00 0.00 83 1019.1
20260504223537 27 234 1.6 3.2 0.00 0.00 0.00 83 1019.0
20260504223032 27 194 1.6 3.2 0.00 0.00 0.00 83 1018.6
20260504222529 27 226 1.6 3.2 0.00 0.00 0.00 82 1018.8
20260504222027 27 197 1.6 3.2 0.00 0.00 0.00 81 1018.7
20260504221524 27 172 0.0 3.2 0.00 0.00 0.00 81 1018.6
20260504221020 27 145 1.6 1.6 0.00 0.00 0.00 80 1018.7
20260504220517 27 180 0.0 1.6 0.00 0.00 0.00 80 1018.8
20260504220014 27 171 1.6 1.6 0.00 0.00 0.00 78 1018.6
20260504215510 27 144 1.6 8.0 0.00 0.00 0.00 79 1018.5
20260504215008 27 186 0.0 8.0 0.00 0.00 0.00 79 1018.4
20260504214504 27 172 0.0 8.0 0.00 0.00 0.00 78 1018.2
20260504214000 27 212 3.2 14.5 0.00 0.00 0.00 79 1018.4
20260504213456 27 158 1.6 4.8 0.00 0.00 0.00 79 1018.2
20260504212954 27 245 1.6 3.2 0.00 0.00 0.00 80 1018.3
20260504212450 27 126 1.6 3.2 0.00 0.00 0.00 78 1018.1
20260504211948 27 172 1.6 3.2 0.00 0.00 0.00 77 1018.1
20260504211444 27 190 1.6 3.2 0.00 0.00 0.00 79 1018.2
20260504210942 28 205 6.4 11.3 0.00 0.00 0.00 77 1018.1
20260504210438 28 198 1.6 8.0 0.00 0.00 0.00 77 1018.1
20260504205935 28 236 6.4 12.9 0.00 0.00 0.00 75 1018.1
20260504205433 28 142 4.8 4.8 0.00 0.00 0.00 76 1017.9
20260504204931 28 194 3.2 4.8 0.00 0.00 0.00 74 1018.0
20260504204429 27 231 1.6 3.2 0.00 0.00 0.00 77 1017.9
20260504203928 28 157 4.8 8.0 0.00 0.00 0.00 74 1017.9
20260504203425 28 124 0.0 3.2 0.00 0.00 0.00 76 1018.0
20260504202921 28 195 4.8 4.8 0.00 0.00 0.00 75 1018.1
20260504202417 28 200 8.0 9.7 0.00 0.00 0.00 74 1017.9
20260504201914 27 169 0.0 3.2 0.00 0.00 0.00 74 1018.2
20260504201412 29 181 4.8 8.0 0.00 0.00 0.00 73 1017.9
20260504200909 30 128 3.2 4.8 0.00 0.00 0.00 70 1018.0
20260504200406 30 200 3.2 9.7 0.00 0.00 0.00 70 1018.0
20260504195902 29 166 4.8 9.7 0.00 0.00 0.00 72 1018.0
20260504195358 28 151 1.6 4.8 0.00 0.00 0.00 71 1018.1
20260504194855 28 190 1.6 4.8 0.00 0.00 0.00 72 1018.1
20260504194350 28 136 1.6 4.8 0.00 0.00 0.00 72 1018.0
20260504193847 28 85 0.0 9.7 0.00 0.00 0.00 74 1018.2
20260504193344 29 152 4.8 11.3 0.00 0.00 0.00 72 1018.5
20260504192843 30 206 4.8 12.9 0.00 0.00 0.00 72 1018.0
20260504192340 28 231 3.2 4.8 0.00 0.00 0.00 71 1018.3
20260504191838 30 161 3.2 3.2 0.00 0.00 0.00 70 1018.3
20260504191336 30 260 1.6 14.5 0.00 0.00 0.00 71 1017.9
20260504190831 28 208 3.2 8.0 0.00 0.00 0.00 70 1018.4
20260504190327 29 162 4.8 8.0 0.00 0.00 0.00 71 1018.2
20260504185824 30 211 1.6 3.2 0.00 0.00 0.00 70 1018.2
20260504185321 28 233 3.2 9.7 0.00 0.00 0.00 72 1018.3
20260504184817 30 94 0.0 3.2 0.00 0.00 0.00 69 1018.4
20260504184313 30 140 1.6 4.8 0.00 0.00 0.00 69 1018.5
20260504183809 30 331 0.0 9.7 0.00 0.00 0.00 68 1018.4
20260504183306 28 167 1.6 4.8 0.00 0.00 0.00 68 1018.6
20260504182804 29 211 3.2 11.3 0.00 0.00 0.00 69 1018.6
20260504182301 29 79 1.6 8.0 0.00 0.00 0.00 68 1018.3
20260504181759 30 216 1.6 11.3 0.00 0.00 0.00 68 1018.7
20260504181255 28 142 0.0 3.2 0.00 0.00 0.00 71 1018.5
20260504180755 29 230 3.2 4.8 0.00 0.00 0.00 68 1018.6
20260504180253 29 172 3.2 11.3 0.00 0.00 0.00 67 1018.8
20260504175750 29 212 1.6 3.2 0.00 0.00 0.00 69 1018.9
20260504175247 30 182 1.6 4.8 0.00 0.00 0.00 70 1019.0
20260504174745 29 196 1.6 4.8 0.00 0.00 0.00 68 1018.8
20260504174243 28 128 3.2 8.0 0.00 0.00 0.00 69 1018.7
20260504173739 28 230 4.8 11.3 0.00 0.00 0.00 70 1019.2
20260504173236 30 206 4.8 11.3 0.00 0.00 0.00 68 1019.3
20260504172733 30 48 6.4 11.3 0.00 0.00 0.00 66 1019.1
20260504172229 30 178 3.2 9.7 0.00 0.00 0.00 65 1019.3
20260504171725 31 197 6.4 14.5 0.00 0.00 0.00 65 1019.2
20260504171223 30 146 3.2 14.5 0.00 0.00 0.00 65 1019.3
20260504170719 30 106 4.8 14.5 0.00 0.00 0.00 64 1019.1
20260504170217 30 221 6.4 12.9 0.00 0.00 0.00 63 1019.2
20260504160135 30 125 1.6 4.8 0.00 0.00 0.00 58 1019.7
20260504151102 28 160 1.6 8.0 0.00 0.00 0.00 63 1020.1
20260504150600 30 220 4.8 9.7 0.00 0.00 0.00 63 1020.0
20260504141026 28 163 4.8 9.7 0.00 0.00 0.00 71 1020.3
20260504140522 28 223 4.8 4.8 0.00 0.00 0.00 70 1020.1
20260504130447 26 91 3.2 4.8 0.00 0.00 0.00 71 1020.1
20260504110334 20 140 0.0 0.0 0.00 0.00 0.00 97 1019.9
20260504100251 20 140 0.0 1.6 0.00 0.00 0.00 97 1019.6
20260504081645 20 140 0.0 0.0 0.00 0.00 0.00 97 1018.6
20260504081141 20 137 0.0 0.0 0.00 0.00 0.00 97 1018.5
20260504080637 20 149 0.0 1.6 0.00 0.00 0.00 97 1018.5
20260504080134 20 130 0.0 0.0 0.00 0.00 0.00 97 1018.5
20260504050450 20 143 0.0 0.0 0.00 0.00 0.00 96 1019.9
20260504045947 20 125 0.0 1.6 0.00 0.00 0.00 96 1019.8
20260504045443 20 128 0.0 1.6 0.00 0.00 0.00 96 1019.7
20260504044939 20 142 0.0 0.0 0.00 0.00 0.00 96 1019.9
20260504044437 20 129 0.0 0.0 0.00 0.00 0.00 96 1019.9
20260504043934 20 144 0.0 0.0 0.00 0.00 0.00 96 1020.0
20260504043431 20 138 0.0 0.0 0.00 0.00 0.00 96 1020.1
20260504042929 20 123 0.0 0.0 0.00 0.00 0.00 96 1020.1
20260504042425 20 138 0.0 0.0 0.00 0.00 0.00 96 1020.2
20260504041921 20 129 0.0 0.0 0.00 0.00 0.00 96 1020.3
20260504041418 20 131 0.0 0.0 0.00 0.00 0.00 96 1020.5
20260504040914 20 134 0.0 0.0 0.00 0.00 0.00 96 1020.5